Location: Newark
(35.2672°N, 80.7344°W)
Time: 21:58:46
(UTC+00:00)

Tiros 1 - Pass Details

Date: 22 January 2020
Orbit: 631 x 664 km, 48.4° (Epoch: 19 February)

Event Time Altitude Azimuth Distance (km) Brightness Sun altitude
Rises 01:58:49 0° 304° (WNW) 2,989 11.2 -40.4°
Enters shadow 02:01:00 - 301° (WNW) 2,148 10.4 -40.9°
Reaches altitude 10° 02:01:11 10° 300° (WNW) 2,077 - -40.9°
Maximum altitude 02:05:55 60° 221° (SW) 757 - -41.9°
Drops below altitude 10° 02:10:37 10° 142° (SE) 2,071 - -42.8°
Sets 02:12:59 0° 139° (SE) 2,979 - -43.3°
